Time,TemperatureF,DewpointF,PressureIn,WindDirection,WindDirectionDegrees,WindSpeedMPH,WindSpeedGustMPH,Humidity,HourlyPrecipIn,Conditions,Clouds,dailyrainin,SoftwareType,DateUTC
2013-03-23 07:52:00,11.6,8.2,28.02,WNW,289,0.0,0.0,86,0.00,,,1.72,WUHU216DAVISWMX,2013-03-23 11:52:00,
2013-03-23 07:57:00,12.0,8.8,28.02,WNW,288,0.0,0.0,87,0.00,,,1.72,WUHU216DAVISWMX,2013-03-23 11:57:00,
2013-03-23 08:02:00,12.9,9.7,28.02,WNW,287,0.0,0.0,87,0.00,,,1.72,WUHU216DAVISWMX,2013-03-23 12:02:00,
2013-03-23 08:07:00,13.5,10.3,28.02,WNW,288,0.0,0.0,87,0.00,,,1.72,WUHU216DAVISWMX,2013-03-23 12:07:00,
2013-03-23 08:12:00,14.3,11.1,28.03,WNW,288,0.0,0.0,87,0.00,,,1.72,WUHU216DAVISWMX,2013-03-23 12:12:00,
2013-03-23 08:17:00,14.9,11.7,28.03,WNW,287,0.0,0.0,87,0.00,,,1.72,WUHU216DAVISWMX,2013-03-23 12:17:00,
2013-03-23 08:22:00,15.5,12.5,28.02,WNW,287,0.0,0.0,88,0.00,,,1.72,WUHU216DAVISWMX,2013-03-23 12:22:00,
2013-03-23 08:27:00,15.8,12.8,28.03,WNW,288,0.0,0.0,88,0.00,,,1.72,WUHU216DAVISWMX,2013-03-23 12:27:00,
2013-03-23 08:32:00,16.7,13.7,28.03,WNW,288,0.0,0.0,88,0.00,,,1.72,WUHU216DAVISWMX,2013-03-23 12:32:00,
2013-03-23 08:37:00,17.7,14.7,28.03,WNW,287,0.0,0.0,88,0.00,,,1.72,WUHU216DAVISWMX,2013-03-23 12:37:00,
2013-03-23 08:42:00,18.5,15.5,28.03,WNW,287,0.0,0.0,88,0.00,,,1.72,WUHU216DAVISWMX,2013-03-23 12:42:00,
2013-03-23 08:47:00,19.5,16.2,28.03,WNW,287,0.0,0.0,87,0.00,,,1.72,WUHU216DAVISWMX,2013-03-23 12:47:00,
2013-03-23 08:52:00,20.0,16.7,28.03,WNW,287,0.0,0.0,87,0.00,,,1.72,WUHU216DAVISWMX,2013-03-23 12:52:00,
2013-03-23 08:57:00,20.0,16.5,28.03,WNW,287,0.0,0.0,86,0.00,,,1.72,WUHU216DAVISWMX,2013-03-23 12:57:00,
2013-03-23 09:02:00,20.6,17.3,28.03,WNW,287,0.0,0.0,87,0.00,,,1.72,WUHU216DAVISWMX,2013-03-23 13:02:00,
2013-03-23 09:07:00,21.4,18.1,28.03,WNW,286,0.0,4.0,87,0.00,,,1.72,WUHU216DAVISWMX,2013-03-23 13:07:00,
2013-03-23 09:12:00,22.4,19.1,28.03,SSW,201,0.0,4.0,87,0.00,,,1.72,WUHU216DAVISWMX,2013-03-23 13:12:00,
2013-03-23 09:17:00,23.1,19.2,28.04,SW,226,0.0,6.0,85,0.00,,,1.72,WUHU216DAVISWMX,2013-03-23 13:17:00,
2013-03-23 09:22:00,23.6,19.5,28.03,SW,236,6.0,7.0,84,0.00,,,1.72,WUHU216DAVISWMX,2013-03-23 13:22:00,
2013-03-23 09:27:00,24.1,19.4,28.04,SW,221,7.0,9.0,82,0.00,,,1.72,WUHU216DAVISWMX,2013-03-23 13:27:00,
2013-03-23 09:33:00,24.6,19.3,28.03,WSW,256,4.0,9.0,80,0.00,,,1.72,WUHU216DAVISWMX,2013-03-23 13:33:00,
2013-03-23 09:38:00,25.0,19.1,28.03,SW,217,1.0,8.0,78,0.00,,,1.72,WUHU216DAVISWMX,2013-03-23 13:38:00,
2013-03-23 09:43:00,25.2,18.4,28.04,SSW,209,3.0,8.0,75,0.00,,,1.72,WUHU216DAVISWMX,2013-03-23 13:43:00,
2013-03-23 09:48:00,25.5,18.4,28.04,SSW,198,4.0,9.0,74,0.00,,,1.72,WUHU216DAVISWMX,2013-03-23 13:48:00,
2013-03-23 09:53:00,25.8,18.4,28.04,SSW,206,3.0,9.0,73,0.00,,,1.72,WUHU216DAVISWMX,2013-03-23 13:53:00,
2013-03-23 09:58:00,26.3,18.9,28.04,SW,233,6.0,6.0,73,0.00,,,1.72,WUHU216DAVISWMX,2013-03-23 13:58:00,
2013-03-23 10:03:00,26.5,18.1,28.04,WSW,247,0.0,8.0,70,0.00,,,1.72,WUHU216DAVISWMX,2013-03-23 14:03:00,
2013-03-23 10:08:00,26.8,18.0,28.04,SSW,204,6.0,8.0,69,0.00,,,1.72,WUHU216DAVISWMX,2013-03-23 14:08:00,
2013-03-23 10:13:00,27.3,18.5,28.04,SSW,209,4.0,8.0,69,0.00,,,1.72,WUHU216DAVISWMX,2013-03-23 14:13:00,
2013-03-23 10:18:00,27.8,18.7,28.04,WSW,247,0.0,7.0,68,0.00,,,1.72,WUHU216DAVISWMX,2013-03-23 14:18:00,
2013-03-23 10:23:00,27.8,18.7,28.04,WSW,247,0.0,7.0,68,0.00,,,1.72,WUHU216DAVISWMX,2013-03-23 14:23:00,
2013-03-23 10:28:00,27.8,18.7,28.04,WSW,247,0.0,0.0,68,0.00,,,1.72,WUHU216DAVISWMX,2013-03-23 14:28:00,
2013-03-23 10:33:00,27.9,18.8,28.04,WSW,246,0.0,0.0,68,0.00,,,1.72,WUHU216DAVISWMX,2013-03-23 14:33:00,
2013-03-23 10:38:00,27.9,18.8,28.04,WSW,246,0.0,0.0,68,0.00,,,1.72,WUHU216DAVISWMX,2013-03-23 14:38:00,
2013-03-23 10:43:00,27.9,18.8,28.04,WSW,246,0.0,0.0,68,0.00,,,1.72,WUHU216DAVISWMX,2013-03-23 14:43:00,
2013-03-23 10:46:00,27.9,18.8,28.05,WSW,246,0.0,0.0,68,0.00,,,1.72,WUHU216DAVISWMX,2013-03-23 14:46:00,
2013-03-23 10:48:00,27.9,18.8,28.05,WSW,246,0.0,0.0,68,0.00,,,1.72,WUHU216DAVISWMX,2013-03-23 14:48:00,
2013-03-23 10:53:00,27.9,18.8,28.05,WSW,246,0.0,0.0,68,0.00,,,1.72,WUHU216DAVISWMX,2013-03-23 14:53:00,